Theta_e
319 318 318 317 316 315 315 314 313 312 310 317 316 322 324 325 322 326 329 331 327 319 312 315 312 310 313 317 317 319 320 318 320 319 319 317 317 316 314 314 314 315 313 311 310 311 308 308 308 310 309 310 312 315 315 315 314 313 311 311 313 325 307 305 306 310 312 314 316 317 316 315 312 313 314 312 309 310 308 308 309 307 310 307 306 305 310
319 318 317 317 316 315 315 314 313 311 309 313 317 319 322 323 324 323 329 331 327 317 308 309 311 312 315 315 316 320 318 318 317 315 317 316 315 313 315 314 316 314 316 313 310 312 306 309 309 309 311 310 315 315 315 315 312 311 311 309 313 307 310 307 303 305 306 308 312 311 314 314 311 310 313 313 313 313 313 313 314 306 312 308 306 300 309
319 318 318 317 316 315 315 314 313 311 310 312 317 316 321 323 327 325 325 328 325 314 315 313 314 316 315 317 312 316 319 321 320 319 318 319 317 315 313 314 315 314 316 313 313 312 309 308 311 311 311 312 315 314 314 315 313 314 315 331 316 308 308 308 300 298 297 297 299 301 305 308 312 313 315 314 313 312 310 309 309 303 311 310 308 307 315
319 318 318 317 316 315 314 314 313 311 310 309 317 320 321 323 316 324 323 323 323 321 322 318 316 317 317 314 315 315 315 319 321 320 318 320 318 317 316 315 316 314 313 311 311 311 312 309 309 310 310 311 313 315 315 314 313 327 344 328 315 308 309 310 309 305 304 311 315 314 315 312 309 310 311 314 314 314 313 311 310 307 310 310 313 313 314
320 319 318 317 316 315 314 313 312 311 309 309 314 322 326 326 317 319 318 323 321 318 319 316 321 318 320 314 317 313 316 317 317 322 314 318 317 316 316 315 311 312 312 311 310 312 311 312 312 311 310 313 314 316 316 315 317 344 328 327 315 312 308 309 310 309 312 313 312 313 316 310 311 310 310 313 313 314 313 310 306 316 308 307 315 318 314
321 320 320 318 317 316 315 312 310 309 309 309 320 321 323 315 325 325 326 315 308 315 320 321 319 321 319 319 319 316 316 316 313 318 318 320 319 314 315 316 314 314 311 313 309 310 310 311 309 312 311 312 313 313 315 314 327 329 316 318 314 310 307 311 310 310 312 314 313 313 312 312 312 312 312 311 313 314 312 311 313 312 308 306 316 318 314
321 321 321 320 319 318 316 314 311 308 307 309 324 318 320 321 321 323 328 317 320 320 321 321 319 318 319 319 318 315 315 313 316 315 318 317 316 316 310 312 314 315 316 313 310 312 309 308 312 312 310 311 312 310 312 313 316 314 313 315 325 316 308 311 311 310 311 313 313 314 311 311 311 311 312 312 312 313 313 313 314 313 312 313 315 315 317
322 321 321 320 319 318 317 314 312 310 307 318 326 323 317 315 316 316 324 323 320 319 320 319 316 315 325 318 318 318 318 314 316 317 321 312 315 317 312 313 315 315 316 315 312 313 313 312 311 313 313 312 314 312 311 310 314 314 311 313 318 311 309 313 311 309 309 311 313 314 313 312 310 312 313 314 314 313 313 313 313 314 313 313 312 314 317
322 322 321 320 319 318 317 315 312 310 309 322 320 322 324 322 323 324 320 319 320 322 320 317 317 316 318 315 317 317 318 315 317 317 322 317 315 315 319 316 317 317 316 316 315 317 316 315 316 317 315 310 316 312 311 314 311 313 312 313 314 312 310 313 311 306 307 312 311 312 313 312 310 310 311 312 312 310 312 311 314 312 312 314 312 312 315
322 322 321 320 319 318 317 315 312 310 310 320 319 318 328 326 326 326 324 318 323 320 320 321 317 315 318 318 317 317 317 318 318 314 318 321 319 321 317 319 318 316 316 315 316 318 318 318 319 319 319 318 319 318 318 315 313 312 312 315 312 312 311 311 311 306 306 310 311 310 311 309 306 307 310 313 314 314 315 315 316 315 315 312 310 313 320
322 321 321 321 319 318 317 315 314 311 316 315 315 317 324 322 319 321 324 318 321 322 317 319 315 318 317 319 318 320 318 318 319 313 315 319 320 328 321 318 317 315 315 317 322 322 323 321 321 320 319 318 317 318 317 317 316 316 314 312 314 316 312 309 313 305 306 309 309 310 306 300 302 315 320 316 313 313 312 312 314 317 318 318 319 321 324
322 321 321 321 320 318 317 316 314 313 312 317 319 319 325 328 325 322 318 315 317 322 318 314 317 317 317 319 321 318 316 319 317 320 318 318 320 321 321 320 319 315 320 324 323 324 325 324 321 321 318 318 318 318 318 315 316 321 317 314 314 315 314 311 315 307 304 308 309 304 299 301 314 318 319 318 317 316 315 315 315 315 318 319 319 320 322
321 321 321 321 320 318 317 316 313 313 312 316 317 317 324 330 324 320 319 318 316 318 318 316 321 320 318 317 317 321 320 320 321 322 320 319 319 320 320 321 318 319 323 322 324 323 317 316 316 318 317 318 316 316 315 315 316 318 318 318 316 313 311 314 311 311 310 306 306 297 300 314 319 318 319 320 318 317 315 313 315 317 317 320 318 321 323
321 321 321 320 320 319 317 316 315 315 312 312 315 319 323 329 323 320 319 316 317 321 320 317 318 316 317 317 316 318 322 320 321 322 319 325 323 320 321 324 323 325 324 325 322 320 315 316 312 313 312 313 313 311 313 315 315 316 316 317 317 315 315 313 308 313 304 307 306 305 314 311 314 315 315 317 314 315 314 309 314 317 320 321 321 323 324
320 321 321 320 320 319 318 317 316 315 313 310 317 320 324 331 328 321 323 320 316 320 320 311 315 316 316 316 318 319 318 322 318 318 320 322 322 324 323 325 326 326 326 322 319 319 316 314 308 307 310 307 303 306 312 309 315 316 317 317 318 323 312 318 310 309 311 305 303 307 303 301 312 317 320 321 321 320 319 316 312 319 322 323 324 324 324
320 320 321 320 320 319 318 317 316 315 313 310 317 319 321 332 331 325 321 319 320 315 318 322 321 318 316 316 319 318 315 318 319 317 317 318 320 323 326 327 328 327 324 321 320 316 315 310 307 307 306 309 311 309 308 311 310 317 316 317 317 317 318 319 312 312 310 306 302 303 300 305 316 317 318 321 321 320 319 313 307 322 324 324 324 324 324
320 320 320 320 320 319 318 317 316 314 313 310 313 317 321 334 330 324 320 321 320 316 326 326 322 320 318 318 318 319 320 315 318 314 313 317 320 320 323 327 330 326 323 319 317 315 311 310 309 310 310 312 309 309 313 310 308 309 315 317 314 313 312 313 309 308 308 307 305 303 308 311 318 320 319 321 321 321 316 302 305 321 323 323 324 324 323
317 318 319 320 320 319 318 317 316 314 312 309 313 316 319 328 334 328 322 318 316 315 321 325 320 316 317 317 316 319 319 319 319 320 316 320 319 318 320 322 319 324 326 316 317 313 311 310 306 307 306 311 313 314 305 311 308 308 308 311 311 311 310 310 306 308 308 307 306 307 313 320 321 321 321 322 321 317 305 301 312 325 325 324 323 324 323
314 315 316 317 319 319 318 317 316 315 313 310 315 320 324 328 331 330 323 319 316 312 320 321 321 320 324 325 321 321 321 321 320 316 315 315 318 322 322 322 323 316 320 319 316 314 310 311 313 311 309 313 312 307 314 310 309 313 312 309 309 310 311 310 311 307 306 307 303 305 311 320 321 322 320 322 316 305 304 321 331 328 325 325 325 326 327
313 314 314 315 316 319 319 318 317 316 315 313 313 315 319 324 330 329 322 315 317 314 317 318 320 319 322 319 318 318 319 320 322 318 316 313 324 322 318 314 326 321 318 321 314 316 311 310 312 315 310 312 314 317 312 313 317 314 314 316 309 310 307 308 307 312 312 312 307 305 296 318 324 320 320 322 315 317 325 328 327 329 327 327 327 327 327
312 313 313 314 315 316 318 318 316 316 315 314 313 315 317 326 330 330 328 322 315 312 315 324 323 319 322 321 322 322 320 317 319 318 320 319 326 320 311 312 317 318 315 317 309 312 317 310 312 313 315 314 318 312 309 311 313 320 317 315 313 318 308 309 310 316 306 306 304 303 314 319 323 324 316 325 327 328 329 328 324 328 329 328 328 328 328
311 312 312 313 314 315 317 318 317 316 315 314 313 316 316 324 326 327 326 325 318 315 317 322 324 325 326 326 325 326 325 323 324 325 320 319 328 320 321 323 320 319 320 321 316 316 319 316 316 312 309 312 317 311 316 308 306 316 320 318 307 321 317 320 309 320 315 312 314 323 325 322 324 325 327 328 329 329 327 327 327 328 327 332 328 327 328
311 311 312 312 312 314 316 317 317 316 315 314 314 315 314 318 321 326 326 321 324 324 325 325 327 329 331 332 333 331 329 329 328 326 326 320 320 321 321 320 320 325 324 325 318 317 319 318 314 317 314 315 314 313 316 313 311 315 313 318 317 322 321 331 321 320 323 325 326 322 324 323 323 323 326 324 324 324 325 327 327 329 330 331 328 328 327
311 311 311 311 312 313 315 317 317 316 314 314 313 313 313 317 319 321 324 322 318 316 322 326 323 321 322 323 329 330 327 325 326 329 331 327 318 320 322 323 323 322 325 327 329 319 319 319 318 317 312 317 317 314 310 309 312 316 314 313 317 321 322 318 314 324 315 307 323 324 321 322 324 323 325 326 327 328 327 329 330 330 330 328 328 327 326
311 311 311 311 312 312 314 317 316 314 314 314 313 314 316 317 322 325 319 314 315 316 311 316 320 325 327 329 329 326 325 328 330 330 328 328 324 320 320 324 326 322 323 326 332 321 321 315 316 316 312 323 319 311 318 311 314 320 310 316 315 315 325 316 315 323 317 320 322 322 323 324 325 325 323 325 328 330 331 331 330 330 329 328 327 326 323
312 312 311 311 311 312 314 316 315 314 314 313 312 312 312 314 320 322 321 322 321 321 314 313 318 327 327 324 321 324 329 327 326 326 327 327 327 327 325 326 326 329 327 323 322 319 318 318 321 318 313 313 322 313 313 318 316 324 315 313 319 321 322 311 319 317 319 323 323 324 323 322 323 324 325 326 327 328 328 328 328 327 325 325 326 325 324
313 313 312 311 311 313 315 316 314 314 313 313 313 313 313 315 319 318 318 320 315 314 316 314 320 325 328 323 327 328 328 326 325 325 325 326 325 326 325 326 326 325 322 320 322 320 319 318 316 315 316 316 319 316 317 317 315 314 313 317 320 318 314 318 317 316 315 316 319 323 315 315 319 324 323 324 328 328 327 327 326 325 325 325 323 324 327
313 312 311 311 313 315 315 314 313 313 313 313 313 314 316 316 318 321 324 324 319 313 313 314 315 320 325 319 323 325 324 324 324 323 323 324 325 324 323 323 325 320 320 318 316 317 317 314 313 318 318 322 316 314 319 321 318 315 315 316 318 314 320 318 316 314 315 322 324 332 328 325 327 327 326 328 328 327 325 325 325 325 327 325 325 323 325
312 311 312 313 314 314 314 313 313 313 312 311 313 312 314 318 320 321 322 325 327 320 317 318 321 319 313 317 326 324 325 324 323 322 322 323 323 323 323 323 322 321 320 319 318 319 316 317 321 318 319 325 316 313 316 311 310 309 315 321 319 324 324 325 322 323 321 323 326 328 328 325 327 326 327 327 329 326 325 326 327 326 326 326 324 325 324
312 313 314 314 313 313 313 312 312 311 312 312 310 311 311 318 325 325 325 326 328 325 316 314 311 316 324 323 322 325 323 324 322 322 322 321 321 323 323 324 323 321 320 317 317 314 316 316 317 319 321 326 315 316 311 312 310 313 321 324 323 324 326 327 327 320 329 326 327 328 328 327 327 327 326 327 329 327 325 326 327 327 326 327 326 326 327
312 313 313 312 312 312 312 312 312 311 311 311 310 310 310 310 319 322 317 324 329 323 319 319 314 319 317 322 322 319 322 322 322 321 321 321 322 323 325 326 324 322 317 317 316 315 317 314 315 317 320 322 320 316 312 310 308 316 323 326 326 324 323 326 327 327 326 326 328 327 326 327 328 326 326 327 326 328 329 328 330 331 328 327 327 327 327
311 311 311 312 312 312 311 311 311 311 311 309 306 310 313 310 314 315 314 317 325 321 316 313 314 314 314 316 320 323 321 321 322 321 321 322 319 321 323 322 320 321 321 317 318 319 315 317 314 316 317 325 321 314 314 311 308 315 324 327 329 331 330 327 326 327 329 329 325 323 322 325 326 324 324 327 327 328 328 329 329 328 327 326 327 326 327
311 311 310 311 311 311 311 311 311 311 309 311 312 311 311 312 312 312 313 319 321 318 320 315 310 313 312 316 319 321 321 319 318 320 319 322 318 322 319 322 320 319 332 319 316 314 318 317 319 315 318 328 319 316 315 311 312 321 321 325 326 327 328 326 325 327 328 326 325 321 322 323 324 328 328 328 328 328 329 328 328 327 325 323 323 323 324
310 310 311 311 311 311 311 311 311 310 311 309 308 311 314 314 314 313 317 319 315 319 320 314 310 310 311 320 313 317 320 314 316 318 314 322 322 321 318 319 320 315 319 315 319 316 318 316 314 316 323 319 321 315 311 316 318 320 323 324 325 325 326 326 325 328 328 325 326 327 329 330 330 330 329 327 328 330 330 329 326 324 322 321 322 322 325
310 311 311 310 310 311 310 310 309 308 305 309 311 319 319 317 317 317 316 316 313 315 314 314 314 308 309 311 311 317 320 315 313 317 313 321 322 318 320 315 318 312 317 321 317 316 315 316 320 316 312 319 316 312 314 316 318 320 324 324 325 326 324 323 323 327 327 330 327 329 329 329 328 326 326 326 326 327 325 326 326 323 320 324 324 325 324
310 310 310 310 310 310 308 309 307 306 306 307 313 324 320 320 318 320 319 319 317 312 313 315 315 309 309 305 306 316 321 314 317 319 319 320 319 321 320 317 313 318 326 316 313 316 314 320 316 310 316 312 313 315 319 323 320 322 326 324 327 325 324 324 326 325 328 329 328 329 328 327 326 326 328 326 327 327 326 325 325 325 323 324 326 327 327
310 309 310 309 309 307 303 304 310 308 311 320 321 322 320 322 322 323 321 316 319 321 313 313 311 313 313 312 318 322 320 312 317 314 319 315 315 323 318 317 311 322 317 315 316 314 321 325 317 313 314 310 315 324 328 328 325 324 325 327 328 328 328 328 327 325 324 324 325 326 325 324 326 328 327 325 326 325 324 324 325 325 322 323 324 324 325
310 309 308 306 304 301 303 307 310 314 319 316 318 319 315 320 314 315 317 313 316 315 312 311 306 312 318 316 310 321 317 314 318 312 315 321 315 315 320 315 318 315 308 311 315 323 326 320 315 311 313 321 327 328 328 329 329 330 330 330 328 328 331 330 327 326 324 322 323 324 324 324 324 324 325 325 324 324 327 327 329 327 327 327 326 327 324
308 308 306 305 302 301 306 314 318 317 316 319 318 314 312 314 312 309 310 313 314 310 314 310 307 312 311 312 315 325 318 314 312 315 311 323 314 313 319 311 317 317 310 309 317 322 311 313 315 313 311 318 324 327 328 328 329 328 328 331 330 332 332 329 329 328 326 326 327 326 326 325 324 325 326 325 325 326 326 327 326 326 326 327 326 327 323
306 303 303 303 301 307 317 319 320 315 314 310 313 312 308 311 305 303 314 308 307 312 314 308 313 313 314 312 312 314 323 315 309 310 313 318 319 312 318 315 317 312 305 306 313 318 310 307 313 311 310 319 323 328 330 327 328 327 331 331 330 332 332 330 329 328 330 329 328 325 327 326 326 325 325 325 323 325 323 324 326 326 326 326 326 325 326
305 304 304 303 309 309 311 313 315 312 309 308 308 308 310 304 307 311 310 307 306 309 316 314 315 312 315 315 315 311 323 322 324 320 317 313 323 319 313 310 318 309 307 306 319 317 314 310 309 308 312 323 329 331 328 328 329 327 331 332 332 332 330 330 329 330 329 328 328 329 329 327 327 327 326 325 325 325 326 325 326 326 326 325 323 319 323
307 305 306 307 308 309 309 310 312 307 308 311 304 299 304 307 310 307 311 305 305 311 313 314 311 313 313 314 314 316 319 323 322 319 315 309 318 314 311 315 316 308 304 316 318 314 311 306 307 307 318 326 330 331 328 327 330 328 329 331 332 333 330 330 328 329 329 331 330 331 330 329 329 330 329 328 327 328 328 327 325 323 321 325 325 326 325
309 308 308 307 308 307 309 301 306 308 296 299 299 294 302 301 305 303 306 311 318 314 316 319 318 321 321 321 315 317 317 325 319 317 313 312 319 318 313 312 309 303 310 320 314 309 306 305 306 311 322 327 329 331 332 331 329 330 331 333 336 335 332 330 329 329 330 331 330 331 332 329 329 328 329 329 326 326 327 325 327 325 327 326 326 326 327
310 309 306 306 303 305 306 290 307 304 297 300 297 292 299 299 303 306 305 307 312 312 316 313 314 313 311 318 314 314 316 322 320 318 314 318 314 311 310 306 307 316 317 312 309 305 306 309 311 317 322 327 327 331 331 331 329 328 330 332 333 334 333 330 331 330 330 330 330 330 329 328 327 327 327 328 326 324 324 325 327 327 327 327 327 327 329
303 302 302 301 296 303 301 291 306 300 293 299 301 301 301 298 304 307 306 314 313 311 319 318 318 315 313 318 318 319 316 313 320 313 309 312 309 312 309 307 314 315 308 304 306 307 307 308 316 319 323 325 328 331 334 334 333 330 330 331 333 332 332 330 330 330 329 328 328 327 326 327 328 328 328 328 327 327 327 326 326 326 325 326 328 326 328
301 297 296 291 288 295 295 294 295 293 302 305 304 306 305 305 307 310 315 318 315 316 316 316 317 316 313 320 312 314 317 316 312 311 312 311 307 306 312 318 316 308 307 305 303 303 307 311 314 317 324 326 329 330 333 332 330 327 323 325 331 331 331 331 331 329 328 328 327 328 327 326 326 326 326 327 327 325 326 329 328 325 327 324 323 326 328
302 305 301 301 293 297 304 295 298 301 304 306 308 309 309 310 312 317 323 318 317 319 319 321 320 320 317 314 314 316 318 316 310 314 312 307 306 312 317 312 306 306 302 302 304 306 309 315 319 323 326 326 328 330 332 331 328 327 327 328 329 331 331 331 329 328 328 328 328 327 327 328 327 327 328 330 327 328 326 327 327 327 327 325 326 326 327
293 304 303 291 290 296 295 300 306 305 306 308 309 310 312 314 312 311 316 318 319 320 320 319 315 318 316 321 318 312 314 316 310 312 312 309 311 310 309 307 305 308 308 306 306 311 314 318 320 324 326 328 328 329 326 324 325 326 326 325 328 331 330 328 328 328 328 328 327 327 328 328 327 327 327 326 326 328 329 329 330 329 327 328 327 329 327
302 299 294 294 301 300 299 302 302 301 305 307 309 311 311 310 311 313 318 323 321 320 319 317 319 316 311 316 312 311 309 316 306 305 311 308 304 301 304 302 304 303 309 310 310 315 317 319 325 326 327 327 328 328 327 327 326 325 325 325 328 329 330 329 329 329 329 328 328 328 328 328 329 328 327 326 324 325 328 329 327 327 328 328 328 329 328
298 296 302 301 300 301 304 304 301 299 303 306 308 308 311 310 310 314 320 318 323 323 322 318 319 313 313 313 304 309 309 313 311 310 308 306 306 307 306 304 306 306 309 313 316 319 320 323 329 328 328 325 330 329 326 326 326 325 324 326 331 332 330 328 328 328 329 329 329 327 328 329 328 327 327 325 326 328 328 328 329 328 327 328 328 330 331
304 302 301 304 299 300 302 298 297 298 301 304 306 308 310 310 311 312 319 319 322 320 317 312 316 312 306 307 306 297 305 313 310 307 307 307 310 308 306 305 309 311 315 318 319 321 324 325 324 325 328 330 331 329 328 328 326 325 326 328 331 329 331 329 328 328 328 328 329 328 328 328 329 329 330 329 328 326 325 328 329 329 331 330 329 328 329
295 294 296 301 304 303 304 304 304 303 304 307 309 312 313 312 314 319 321 318 317 312 310 313 311 305 301 300 307 311 314 310 307 308 307 310 315 309 309 311 315 316 318 318 318 320 323 325 328 326 330 333 331 329 328 327 326 326 328 328 329 329 328 327 328 327 327 327 329 328 329 330 330 330 329 327 326 325 323 325 327 330 328 330 330 329 330
Wind_Speed
19 20 22 23 23 24 25 28 25 23 27 16 14 12 9 6 7 9 13 14 14 8 8 8 10 11 11 14 15 12 7 8 8 9 8 9 8 7 8 9 11 11 12 10 8 10 9 12 13 12 11 9 13 9 19 13 14 8 9 12 11 9 8 7 9 6 9 11 9 8 8 12 10 8 11 10 9 8 7 5 3 4 6 3 2 3 4
19 20 21 22 23 23 25 26 27 19 18 11 12 10 8 10 10 4 8 11 10 8 9 9 10 10 13 16 14 6 11 8 10 10 6 8 9 10 7 8 11 10 15 13 11 14 9 12 14 9 10 10 18 11 9 13 13 11 8 10 11 10 9 9 6 4 6 4 8 7 5 7 7 7 6 10 10 10 6 5 7 5 4 0 4 2 1
18 19 20 21 22 23 24 26 27 23 13 11 7 8 10 10 8 8 6 9 9 10 8 10 9 8 9 12 15 10 9 7 15 12 9 8 11 5 7 9 11 13 13 11 9 13 12 7 14 15 6 3 4 16 13 14 13 14 7 12 5 10 5 8 8 8 9 8 5 3 5 5 8 9 15 9 3 8 11 3 3 4 4 3 5 6 5
17 18 19 20 21 22 23 25 27 29 18 12 7 7 7 5 6 6 8 6 9 11 12 13 12 8 9 12 6 6 9 11 14 14 13 8 9 8 4 11 11 10 10 10 11 11 11 11 6 9 9 7 8 10 10 7 14 5 7 4 10 9 11 8 7 8 2 2 3 7 12 12 4 9 19 21 11 7 11 5 3 5 1 7 3 8 8
16 17 18 19 20 21 22 24 27 28 29 11 8 6 6 7 6 2 5 10 8 10 10 6 9 11 10 9 6 4 9 8 15 16 12 7 10 7 7 5 6 7 9 11 9 11 14 12 10 8 12 12 9 16 10 8 13 8 6 5 9 7 8 13 11 5 7 13 11 14 15 9 8 12 12 9 10 12 11 5 3 2 4 5 4 10 12
16 16 17 18 19 21 22 23 26 28 31 27 4 8 8 5 4 4 3 2 6 11 9 12 6 7 17 10 6 13 9 9 7 10 13 8 8 8 9 10 10 8 10 7 8 7 9 9 12 7 13 8 4 7 8 10 7 1 9 10 7 5 8 2 3 6 5 5 5 8 10 12 11 14 14 12 12 13 8 6 2 6 4 3 8 9 11
14 15 16 17 18 20 21 23 24 28 32 27 7 8 7 8 8 3 1 3 8 14 9 9 7 6 11 7 9 10 10 9 12 3 9 12 8 8 5 9 9 9 6 6 8 2 6 6 8 7 4 10 8 5 9 10 11 13 11 8 3 4 9 3 6 6 3 3 5 6 7 6 11 15 15 11 12 13 9 4 1 5 4 0 9 3 13
13 14 15 16 17 19 20 22 23 27 31 22 10 9 9 9 9 9 9 8 9 15 12 7 6 6 3 5 13 10 13 10 6 4 5 10 9 6 3 15 14 12 9 11 7 5 4 6 11 9 8 7 8 6 6 6 11 11 12 7 8 8 3 4 3 5 4 5 7 7 9 10 14 15 14 12 7 9 8 7 7 4 6 7 4 9 10
13 13 13 15 16 17 19 20 21 25 25 10 12 8 9 8 7 8 10 9 5 7 10 8 3 6 9 10 9 10 14 4 12 12 18 11 10 4 10 2 14 5 3 2 2 6 7 5 9 7 8 7 4 8 3 9 9 10 10 9 9 12 4 2 6 7 7 2 5 10 11 12 12 13 13 12 9 9 6 7 3 3 3 3 2 4 8
12 13 13 14 14 15 17 18 19 22 23 7 8 9 10 9 9 9 8 9 8 7 10 2 1 4 5 11 9 5 9 5 10 9 7 7 11 14 5 7 7 3 8 6 8 5 9 6 5 7 7 7 7 9 9 10 8 7 9 7 7 7 6 5 5 7 7 8 2 8 12 10 11 6 12 9 4 4 5 6 4 7 2 6 3 8 10
12 13 12 13 13 14 15 17 17 19 14 10 8 8 10 11 13 12 9 10 7 8 5 5 8 3 4 10 12 14 10 11 9 8 4 9 18 24 7 2 4 4 8 7 7 10 10 4 4 5 8 10 9 5 5 13 3 3 8 8 4 3 5 8 3 6 6 4 9 10 10 10 1 10 15 7 9 8 8 5 6 9 4 6 5 10 11
11 12 12 11 12 12 14 15 15 14 12 8 8 9 9 10 10 8 9 9 8 8 4 4 2 5 10 16 16 14 12 14 9 9 14 7 9 19 11 4 0 1 3 3 5 6 7 7 5 4 8 10 8 9 10 8 11 6 7 7 7 8 6 7 3 5 7 7 11 11 11 4 5 6 10 11 13 9 8 10 9 8 4 4 7 12 9
9 11 11 12 11 11 12 14 14 14 14 10 8 8 10 10 8 8 8 8 8 6 5 7 3 5 5 8 17 22 15 11 10 14 11 4 7 13 6 6 10 5 4 5 8 5 5 4 7 5 4 4 7 9 12 12 10 9 9 7 7 8 8 4 6 5 4 7 4 7 4 6 5 4 5 8 9 9 8 9 9 7 7 3 5 8 7
8 9 11 11 12 11 11 12 14 15 15 13 9 9 10 8 7 8 7 7 7 9 6 6 3 4 8 12 9 12 16 4 6 12 14 14 6 14 8 5 6 0 4 4 3 2 5 1 4 1 7 6 6 7 8 10 12 11 10 9 8 10 6 4 6 4 6 5 8 5 3 4 4 3 2 5 3 7 8 7 6 12 6 3 5 9 6
7 9 10 10 11 12 11 12 14 15 16 16 9 9 9 7 6 7 7 6 8 9 6 3 3 9 9 9 4 10 10 13 7 1 10 15 10 10 11 10 7 8 8 6 2 4 3 2 2 5 8 5 6 6 3 7 5 6 7 8 8 6 8 3 6 0 5 9 7 3 3 4 6 7 4 3 5 5 7 3 8 2 8 5 7 4 4
7 9 10 10 10 11 11 11 12 15 16 18 10 9 10 6 5 7 7 7 8 7 4 3 11 10 8 7 4 11 5 5 8 2 5 8 10 11 12 16 15 3 7 3 3 0 2 3 4 2 3 7 6 3 4 5 5 10 7 10 9 6 7 6 6 5 6 7 9 5 7 5 6 7 5 1 4 5 5 5 5 6 6 4 2 6 3
7 8 10 11 10 9 11 10 11 13 14 14 10 10 9 6 5 7 8 7 6 9 12 15 12 11 8 4 2 4 9 4 7 2 1 4 8 6 7 15 17 12 7 4 0 4 2 3 3 4 5 6 7 5 5 5 7 6 7 16 12 12 8 7 8 10 9 9 7 9 3 4 2 4 4 5 2 4 5 8 3 4 8 5 5 5 4
10 10 11 12 11 10 11 10 10 11 14 15 10 9 9 10 4 6 7 7 8 10 10 8 12 8 5 6 5 3 6 7 10 2 5 1 6 9 1 10 9 9 16 6 1 5 4 3 4 6 7 2 4 4 6 4 6 6 5 3 5 8 9 7 10 8 8 9 9 5 4 1 6 8 4 4 5 5 7 5 5 1 1 5 1 4 5
12 12 12 12 14 13 10 10 10 11 12 15 13 11 6 7 7 5 7 8 7 9 13 18 14 14 10 6 7 5 6 5 2 5 4 4 3 10 11 12 11 6 3 5 4 4 5 7 5 7 8 2 5 5 5 2 6 6 6 6 5 7 5 7 7 8 8 8 10 9 3 3 3 4 2 5 4 7 3 4 2 4 4 1 2 9 7
11 11 11 13 13 14 12 10 11 10 12 13 11 8 12 15 7 4 6 7 7 10 14 16 12 12 12 9 8 7 8 3 1 2 2 3 2 10 6 7 4 8 4 7 5 2 5 5 4 2 7 2 1 4 4 5 3 6 3 1 2 2 2 5 6 3 4 3 4 5 1 6 8 4 4 6 4 2 3 4 5 4 5 5 7 5 5
10 11 12 12 12 13 12 10 10 10 11 11 11 9 10 10 8 6 5 6 8 11 10 8 12 17 13 12 11 10 7 6 6 6 5 6 4 6 4 4 5 3 1 2 0 2 4 2 4 4 4 1 2 2 4 6 5 3 4 4 5 2 6 4 5 6 4 4 2 0 0 4 1 7 3 5 5 5 5 5 6 5 5 7 5 6 3
11 11 12 12 13 12 13 11 9 8 10 10 13 9 9 9 9 8 8 7 8 10 10 18 18 16 17 16 13 12 10 8 6 5 5 6 3 7 2 4 3 2 0 5 4 5 5 2 3 3 2 5 1 3 10 7 7 3 5 3 5 4 2 2 5 1 3 0 2 2 3 3 6 4 5 4 4 4 0 1 6 6 6 6 6 6 7
13 12 12 13 13 13 12 12 9 8 8 9 9 7 9 10 10 11 11 9 9 11 13 15 15 15 15 16 14 10 8 4 4 5 4 5 5 5 3 3 2 3 3 3 4 3 2 5 4 1 4 2 1 2 2 4 4 5 2 4 6 4 4 4 2 3 3 5 3 1 4 5 2 2 2 2 3 4 5 5 6 7 6 5 6 6 8
15 15 14 13 13 13 13 12 8 6 7 6 7 7 9 9 11 11 9 8 9 10 11 10 10 9 8 6 8 9 9 9 8 4 1 3 5 3 4 4 4 4 4 4 3 4 4 5 3 2 5 4 2 6 4 4 3 1 7 2 2 5 10 7 5 4 7 2 3 4 6 5 4 1 1 1 4 7 7 8 7 8 9 8 7 7 6
15 15 15 13 13 13 13 13 8 6 5 7 9 9 10 10 8 7 8 8 7 8 8 10 11 10 7 5 2 7 8 7 6 6 6 6 5 5 3 7 6 5 5 4 2 6 4 5 5 4 4 2 4 5 2 5 2 7 4 1 3 1 6 6 1 8 5 2 6 3 5 3 5 2 2 5 7 7 8 8 8 8 9 9 8 7 6
16 14 14 14 13 13 14 12 7 5 7 6 7 8 8 9 9 9 9 8 8 7 9 8 8 11 5 5 4 7 4 2 4 8 8 7 6 6 6 5 5 3 4 5 6 6 5 5 3 4 4 3 4 4 5 3 3 6 6 5 3 6 6 3 4 4 4 1 3 2 2 3 5 5 7 7 4 5 8 9 9 9 9 8 6 4 4
15 14 13 13 12 13 13 8 5 6 7 8 8 9 10 11 10 9 7 6 8 6 8 9 8 11 13 18 16 13 9 7 8 8 8 9 9 7 7 6 5 4 6 6 6 7 4 6 4 5 4 3 1 5 5 5 6 6 6 3 6 6 6 5 7 7 6 5 6 9 6 6 6 8 12 9 8 8 8 8 9 8 8 7 7 5 6
11 10 11 10 12 11 6 5 6 6 8 9 11 10 11 11 10 9 9 7 6 8 10 11 10 13 17 20 16 13 13 10 8 9 9 10 9 8 7 7 6 5 5 5 5 6 5 6 7 5 6 2 5 6 5 3 5 7 8 7 5 7 5 4 1 3 4 5 6 5 3 1 6 5 10 9 9 9 8 8 9 8 6 6 7 7 5
7 7 9 11 9 5 3 4 5 7 7 10 10 12 11 12 12 11 10 7 6 7 8 10 12 12 8 5 6 7 6 7 8 9 8 9 9 9 8 8 6 6 7 7 6 6 7 6 5 5 3 5 2 7 6 7 7 8 2 4 0 6 7 7 5 5 8 8 8 8 4 4 5 8 8 8 8 8 8 9 8 8 7 6 5 5 4
6 7 6 3 3 3 4 3 6 7 8 8 8 7 7 7 7 2 6 8 5 6 8 8 8 6 8 9 12 10 9 10 9 10 10 9 9 9 8 7 7 7 7 7 5 7 6 7 7 9 6 9 6 5 8 6 8 2 2 3 6 4 7 6 3 1 5 6 6 5 7 8 9 10 8 9 7 7 8 9 8 8 7 7 7 7 2
4 2 2 1 3 3 5 6 6 8 9 7 6 4 6 7 5 6 14 9 2 5 6 7 10 10 12 10 11 13 11 7 8 8 10 9 9 9 8 6 7 7 7 7 7 7 5 6 6 6 5 4 4 4 5 7 9 3 4 4 2 4 2 4 2 2 12 11 7 6 6 6 9 8 9 9 7 4 7 9 6 5 6 6 8 1 5
5 5 3 5 5 6 6 7 8 7 7 7 8 6 4 5 5 9 12 11 5 5 6 7 7 7 5 7 7 6 9 10 8 7 7 6 9 8 9 8 7 8 6 7 6 4 6 6 8 5 5 3 3 6 6 7 10 1 5 7 5 6 4 2 1 3 5 6 8 8 8 9 7 7 8 8 8 7 10 9 8 7 3 2 6 8 4
5 6 6 6 8 8 9 8 10 8 7 11 20 24 24 24 22 19 11 7 3 6 5 6 7 6 5 4 7 8 8 6 7 5 7 7 9 5 8 7 7 8 8 7 5 6 4 6 4 8 4 6 4 5 6 7 7 6 6 7 4 5 3 2 2 2 3 5 6 6 7 7 6 8 10 6 7 8 10 8 9 4 5 3 6 3 9
7 6 8 7 8 9 9 9 8 11 13 11 9 8 10 18 14 13 8 4 5 5 5 5 6 7 8 5 9 2 6 8 6 5 7 6 5 5 7 6 6 7 5 6 4 6 6 7 8 4 4 4 5 6 8 6 9 5 6 5 5 6 3 4 2 4 6 8 6 2 8 6 8 8 6 6 6 8 6 6 7 6 7 5 2 7 9
7 7 7 9 9 10 11 10 8 7 8 8 9 5 7 8 9 9 10 6 4 5 6 7 5 7 7 6 6 4 6 7 7 6 8 4 5 7 2 7 4 7 3 4 6 6 5 5 4 6 7 4 6 7 7 7 7 1 4 5 6 4 5 4 3 2 2 2 2 5 9 9 9 7 6 7 6 7 6 8 9 5 4 10 6 7 3
8 9 9 9 11 10 8 9 8 7 6 8 3 6 10 11 9 7 8 7 5 5 6 5 6 9 6 7 6 1 3 8 5 4 6 4 6 6 7 4 7 1 6 3 7 4 7 2 4 8 5 6 7 6 5 6 5 5 6 7 6 6 6 6 6 4 3 3 5 6 6 7 7 7 6 6 6 5 5 3 2 2 5 6 8 6 2
9 9 10 11 7 5 7 7 5 8 3 5 5 3 1 4 4 4 5 5 6 5 6 6 7 8 7 7 4 4 8 6 4 7 7 7 5 2 5 6 3 2 4 6 5 7 3 6 5 6 5 7 5 4 4 4 6 5 2 2 4 2 6 5 7 7 7 7 9 7 7 7 9 6 6 6 6 4 3 2 3 1 0 1 1 0 2
9 9 6 5 5 4 4 6 5 6 8 1 5 4 4 4 5 5 5 6 5 6 6 7 11 9 8 7 8 2 4 4 1 6 5 3 3 4 4 4 2 2 6 8 6 5 3 5 6 8 8 6 3 3 2 3 3 3 3 3 4 4 5 5 8 8 8 7 7 8 7 9 8 6 5 7 6 5 4 5 4 4 4 4 6 3 3
9 7 6 5 3 4 3 4 4 3 6 5 5 4 5 4 6 6 6 6 5 8 8 9 11 9 9 9 8 6 8 3 1 4 5 7 4 2 3 2 1 4 5 6 3 2 8 7 7 7 9 6 5 3 0 1 3 3 4 4 4 4 5 7 7 8 6 4 6 5 5 7 6 6 5 5 4 5 6 5 6 6 4 2 2 2 3
5 6 4 3 6 3 4 1 1 3 3 5 4 5 5 6 7 6 6 7 8 7 6 10 10 10 12 11 8 8 6 8 7 5 3 4 5 4 1 2 2 2 5 7 2 2 5 6 4 8 7 3 4 10 9 4 3 4 5 5 6 6 6 6 5 5 5 7 6 6 7 8 7 6 5 5 5 6 7 7 5 8 4 4 3 3 4
5 5 5 4 4 5 6 8 7 5 4 5 5 5 4 5 8 5 5 9 8 6 7 8 7 10 10 12 10 10 3 4 5 4 4 2 3 1 2 1 1 3 5 5 1 6 3 6 6 8 2 2 3 1 2 6 9 4 5 4 5 5 7 7 7 6 7 7 5 5 5 7 6 5 6 5 4 4 9 9 6 3 4 6 4 4 6
3 3 4 5 6 6 6 3 4 4 5 4 4 5 5 4 5 6 5 7 8 6 9 9 11 10 10 12 11 9 5 5 5 4 4 4 3 4 2 1 2 5 5 1 1 3 3 5 5 7 4 3 4 1 2 1 5 6 5 5 6 7 8 8 8 8 8 7 6 6 5 6 7 5 4 5 6 6 6 6 6 4 2 1 2 5 8
11 8 5 5 3 3 3 2 4 4 3 4 4 3 5 6 7 9 8 6 4 7 5 8 8 6 7 8 9 8 6 4 6 3 5 3 4 3 3 3 1 5 3 0 3 3 5 7 8 7 4 4 6 5 4 3 2 6 4 5 7 8 8 8 9 9 9 8 8 7 7 8 7 6 7 6 6 6 5 2 4 4 1 2 3 2 2
6 4 5 3 3 3 3 2 4 4 3 3 4 4 8 9 8 8 8 8 7 8 8 10 9 10 9 7 6 6 6 3 2 2 4 3 4 5 5 6 6 2 2 3 2 7 8 7 8 2 4 4 4 4 3 3 3 2 5 5 8 7 8 10 10 11 10 9 8 8 8 7 7 6 5 6 7 6 5 4 2 3 3 3 2 3 4
4 4 3 2 1 3 4 1 5 4 4 7 7 8 9 11 9 10 10 6 8 10 8 6 6 9 9 7 6 5 4 5 5 6 6 5 7 5 5 5 4 3 4 6 6 6 7 9 4 4 6 6 5 6 6 4 1 4 5 8 10 9 10 11 11 11 10 9 10 9 8 8 7 7 6 6 5 2 5 9 5 4 3 3 3 3 2
5 4 3 2 2 2 3 1 3 4 6 7 9 8 9 10 9 8 8 7 8 7 7 8 7 6 8 3 5 6 6 5 6 7 5 5 7 5 4 3 3 6 5 6 8 10 9 8 6 5 6 7 4 4 4 4 3 5 3 9 8 10 11 12 11 11 10 10 10 9 9 8 8 8 7 6 7 5 3 7 2 1 1 1 2 3 1
5 4 3 3 3 3 4 3 6 6 6 7 9 9 10 9 8 2 3 7 7 2 4 7 5 1 3 5 7 5 5 5 7 5 6 7 6 3 1 5 6 6 7 8 9 7 7 4 2 3 5 5 4 5 6 6 4 7 3 9 9 10 11 12 12 11 11 11 10 10 8 8 9 7 7 8 3 3 2 3 2 3 3 3 2 1 1
2 3 4 3 3 4 10 8 6 8 9 8 8 10 9 8 8 8 6 5 2 4 1 1 7 4 5 2 6 7 6 5 6 6 5 4 3 4 4 5 6 5 6 8 9 6 4 2 1 3 4 5 4 6 10 4 1 7 3 9 13 10 11 12 11 11 11 11 10 9 8 9 7 5 1 5 6 7 4 3 4 3 2 3 4 4 2
4 3 2 3 4 5 7 6 6 8 8 9 9 8 9 9 9 8 4 7 5 2 2 3 1 2 3 2 5 6 6 2 6 4 5 6 5 6 6 6 7 9 7 8 7 3 2 1 3 2 2 4 5 10 9 9 8 7 7 9 11 10 10 11 11 11 11 10 8 8 8 7 6 4 3 3 2 1 2 2 1 1 2 3 4 4 4
3 2 4 4 4 5 6 5 5 8 8 9 9 9 9 10 9 1 3 6 7 3 4 2 2 4 5 5 2 6 6 5 6 4 7 8 7 5 6 9 7 7 5 4 2 2 3 2 2 2 1 3 7 10 9 8 6 8 8 12 11 9 10 12 11 11 10 8 9 8 8 6 6 5 5 4 2 1 2 4 4 3 1 2 3 4 5
3 4 5 5 7 4 7 4 5 6 7 9 8 8 7 8 6 7 7 6 9 11 8 7 6 7 3 4 5 3 6 5 6 8 6 4 3 7 7 8 6 2 1 2 0 1 3 4 2 2 4 5 6 7 6 6 6 6 5 7 8 8 9 11 11 10 9 9 8 7 7 5 4 5 5 2 3 4 6 7 4 3 4 4 4 4 4
2 3 4 5 7 8 9 8 9 9 10 10 8 6 6 5 4 3 5 6 5 6 8 7 6 5 3 4 6 4 1 4 7 5 7 6 6 8 5 5 1 4 3 2 2 3 3 2 3 1 3 5 6 7 6 4 4 3 4 10 10 8 9 9 9 8 8 6 5 6 5 5 6 3 2 3 5 5 4 2 2 4 4 3 2 1 3
Wind_Direction
329 329 329 329 331 333 333 334 340 353 349 356 346 318 308 276 304 115 175 164 186 217 240 240 225 226 238 246 238 260 249 264 259 259 244 251 217 248 215 246 247 239 259 244 205 222 193 214 229 180 221 214 201 198 181 206 226 230 200 213 224 198 257 258 261 230 187 199 274 270 257 277 285 314 326 325 311 357 327 313 308 307 86 60 121 131 206
328 328 328 329 331 333 334 333 335 354 9 346 312 311 317 320 296 243 170 182 206 234 244 230 226 232 230 241 272 274 289 269 242 232 232 247 176 233 206 221 241 248 253 259 219 174 239 176 253 216 186 233 206 163 171 180 219 216 189 214 170 236 175 274 303 225 253 219 170 261 270 292 278 280 219 234 250 260 297 294 326 275 85 150 82 134 77
326 327 328 330 332 333 335 334 331 341 359 342 314 309 311 294 267 268 182 195 210 238 243 255 280 274 300 312 260 251 235 318 303 294 269 241 260 201 214 232 183 233 243 246 265 160 231 172 215 272 208 222 73 112 225 157 230 200 199 199 159 224 222 184 237 254 242 222 276 307 294 309 349 338 304 243 258 287 277 69 19 350 307 288 126 146 158
325 326 329 331 332 335 335 334 334 330 348 340 312 287 294 279 289 17 295 220 221 242 262 280 288 309 310 291 281 5 300 283 292 291 264 271 237 246 202 228 211 227 240 229 220 194 181 251 179 219 238 150 195 128 223 179 232 133 15 242 217 205 237 229 201 250 305 107 151 273 275 261 262 326 307 295 278 237 251 244 83 159 281 64 128 155 154
325 327 331 332 334 336 337 337 334 332 328 4 305 273 235 294 290 22 313 324 286 262 231 251 345 345 306 268 316 237 215 245 287 269 257 203 266 226 253 248 219 226 243 260 218 221 173 201 274 207 258 188 179 156 197 202 225 48 235 216 254 232 214 226 189 226 153 170 155 219 245 270 220 238 281 279 269 279 290 296 185 96 290 119 220 136 167
323 328 330 333 334 337 339 338 339 335 326 336 302 297 337 325 13 10 338 317 302 308 306 328 316 359 322 309 292 267 272 298 310 288 251 257 229 266 192 253 225 201 224 250 255 214 264 184 221 223 210 271 161 129 194 215 190 19 238 219 237 260 245 29 338 193 222 190 215 227 254 251 257 266 265 275 285 270 248 264 275 160 303 78 150 187 177
321 327 329 332 335 338 340 342 342 338 329 328 276 326 359 346 340 345 142 293 276 276 287 309 329 344 338 307 281 253 259 249 254 282 317 296 209 241 303 254 214 246 189 239 247 104 314 205 214 245 217 268 114 235 163 226 199 205 238 227 184 256 258 224 210 248 204 273 225 211 266 267 250 259 272 275 264 272 271 248 228 288 296 33 155 124 97
318 324 327 331 336 338 341 344 347 341 336 324 335 23 353 7 341 337 332 312 308 284 292 297 318 52 149 294 290 310 277 283 271 240 238 277 279 183 8 268 232 213 209 197 218 275 277 351 329 307 327 301 272 202 188 186 195 191 217 228 180 224 183 181 165 246 222 221 270 284 236 245 262 270 268 258 272 290 291 305 284 271 294 271 107 111 84
315 320 324 330 335 340 342 348 350 345 342 347 349 350 15 339 341 326 311 303 264 287 284 288 4 60 311 276 275 305 289 322 352 321 293 289 282 170 188 333 348 147 229 28 138 182 204 242 318 305 176 252 20 304 135 254 183 180 204 214 192 183 207 173 228 227 230 48 297 269 257 236 246 264 270 265 254 251 261 271 333 288 149 235 148 192 127
312 316 321 326 336 339 343 350 352 353 333 345 341 349 345 339 337 319 311 289 290 284 277 330 315 101 260 272 297 284 299 303 264 268 255 186 235 254 70 9 48 335 121 65 36 92 176 230 265 300 270 252 276 199 244 229 236 164 234 201 216 171 225 232 226 229 232 166 228 287 285 287 265 290 309 324 285 299 316 310 44 274 339 297 30 66 124
304 315 319 325 333 339 344 348 355 359 357 9 343 326 329 355 338 330 319 297 261 250 240 31 333 15 257 279 297 307 267 260 276 274 304 20 344 329 329 125 115 30 59 40 5 347 339 315 260 244 246 260 276 263 295 321 296 294 221 229 129 53 246 239 215 253 275 163 176 218 252 249 5 294 297 328 303 353 323 294 321 30 318 75 83 120 120
301 312 317 324 331 339 342 346 350 1 2 342 310 291 313 337 326 327 323 316 311 300 13 53 18 314 345 333 312 295 298 289 274 304 326 16 336 305 270 202 149 159 50 292 300 336 308 281 277 239 286 273 249 254 255 220 225 236 270 223 177 188 176 250 257 255 243 247 214 224 239 277 201 243 344 357 343 330 327 320 321 311 328 79 118 126 159
305 309 315 324 328 336 342 342 346 351 358 345 324 303 320 321 334 328 327 315 298 327 14 323 7 8 336 321 288 266 256 275 338 318 285 252 337 299 9 119 244 52 250 342 349 4 315 289 282 319 299 321 276 261 244 242 241 210 234 215 216 199 207 216 229 259 299 288 228 243 293 72 323 28 332 6 312 322 309 290 295 289 287 92 269 125 121
303 309 315 322 329 335 339 341 341 346 350 348 328 306 301 324 357 334 343 334 321 320 322 292 12 342 303 287 286 317 293 269 333 337 346 317 327 295 317 345 40 43 260 31 11 322 283 313 285 274 231 232 281 287 261 255 223 217 220 238 215 238 244 230 262 185 253 267 242 235 33 281 157 125 271 283 291 323 331 321 317 329 306 110 85 110 136
311 315 318 323 329 333 339 341 340 344 345 343 318 308 316 337 5 325 315 298 303 310 290 270 286 304 316 295 347 291 327 324 272 320 325 328 326 285 303 315 317 314 28 303 13 322 312 343 321 355 336 313 260 247 309 282 274 219 268 263 233 202 241 207 243 257 237 244 230 157 102 235 269 249 211 218 284 285 277 308 293 301 30 81 90 108 104
311 316 318 323 326 330 337 340 342 342 346 343 332 328 305 331 1 319 315 308 303 293 209 295 355 336 306 293 54 335 321 251 333 325 345 317 291 328 313 321 298 314 265 354 15 292 332 217 90 189 246 296 325 340 255 266 291 340 279 256 254 245 202 242 238 220 228 254 268 273 266 170 238 224 222 255 245 268 304 294 284 31 342 101 92 133 103
311 319 326 326 325 328 331 340 342 344 340 355 338 322 300 340 357 335 318 305 287 266 291 296 308 322 314 294 91 29 297 308 253 339 339 263 276 275 313 316 290 271 271 112 286 290 203 262 245 270 263 230 237 255 324 301 265 223 337 332 292 257 238 233 229 239 236 252 245 243 228 128 49 43 276 217 267 238 282 265 185 46 32 54 29 99 136
350 350 345 339 334 324 326 333 344 345 339 341 332 313 291 280 23 328 313 300 299 293 272 311 332 312 338 358 314 235 245 306 319 99 246 168 284 274 224 253 295 348 329 280 209 241 265 245 229 253 262 215 348 60 252 321 257 262 262 316 317 315 288 264 259 253 245 234 256 260 98 109 183 191 221 172 256 254 239 255 95 58 66 76 334 97 129
337 338 335 334 335 332 321 326 342 345 344 344 334 317 285 347 344 330 319 295 301 290 305 311 295 279 301 334 291 304 274 344 347 288 321 247 311 329 300 298 292 284 311 338 277 287 258 232 263 253 255 2 28 299 19 287 287 295 278 279 285 268 279 272 277 289 298 301 284 283 120 138 132 176 225 29 241 227 292 99 76 75 91 76 121 94 97
319 318 319 322 323 329 325 318 331 343 345 345 342 313 291 291 268 1 313 324 311 298 294 284 274 325 344 317 319 322 338 302 154 260 240 293 336 309 280 260 348 331 358 333 272 221 258 299 299 314 264 26 38 352 294 256 289 290 304 26 229 277 281 275 267 254 281 344 356 317 276 292 282 96 125 55 317 117 150 147 111 88 82 89 89 105 108
307 307 308 308 312 320 323 318 320 334 343 341 338 321 309 311 345 350 326 319 311 304 290 294 337 328 308 302 298 307 299 298 313 303 306 298 335 294 306 325 303 316 53 201 222 59 287 122 272 282 324 214 132 18 262 282 282 284 295 287 267 56 277 297 304 28 306 320 330 65 50 223 21 25 36 55 55 112 132 142 109 104 96 90 93 75 70
294 296 298 298 300 310 312 306 310 319 336 340 327 304 289 310 330 326 335 308 278 259 272 297 298 290 282 276 273 270 285 293 301 319 311 298 278 283 113 209 274 153 230 299 302 359 325 19 263 70 349 350 115 348 345 284 265 131 233 240 269 95 255 121 262 336 317 288 5 356 31 359 61 57 92 91 117 152 170 77 111 113 101 92 94 94 80
288 289 292 294 294 297 307 301 296 307 323 338 328 312 305 312 309 319 310 294 274 267 265 267 268 266 264 258 251 253 259 258 278 232 247 280 279 241 233 238 208 319 11 24 316 253 247 259 260 296 217 161 38 3 335 68 321 302 273 214 285 230 252 145 283 173 187 150 167 178 237 108 105 289 175 184 189 179 154 137 112 95 105 107 109 112 102
287 283 284 288 288 288 291 292 281 292 312 320 317 314 305 304 299 298 301 291 284 296 291 257 248 250 267 263 206 193 208 217 220 270 305 271 284 258 162 91 327 278 52 359 23 274 325 298 276 239 284 53 220 185 174 244 251 261 264 191 265 2 314 267 255 142 200 156 8 72 34 331 125 74 81 149 22 49 81 95 101 103 98 101 101 94 100
280 282 283 284 282 282 285 281 270 287 312 304 296 288 283 280 283 318 322 317 324 329 308 312 292 289 302 337 323 260 243 236 186 198 226 207 248 293 316 13 335 345 343 320 290 271 237 259 275 276 267 73 332 296 127 248 100 274 298 354 264 290 242 258 287 63 359 101 279 186 159 97 71 115 88 57 74 90 95 100 99 99 103 100 107 115 109
270 270 276 281 278 279 283 270 259 278 287 293 292 299 302 289 299 299 281 261 265 276 284 288 293 297 301 281 268 321 13 72 240 232 232 247 242 256 299 334 297 347 299 282 284 273 283 272 292 298 285 206 237 279 277 346 312 198 232 246 296 138 186 210 159 165 126 120 64 25 86 164 213 172 78 66 93 115 115 112 113 115 116 122 118 102 120
255 261 269 277 278 282 277 246 251 277 288 287 286 293 284 284 278 272 273 298 311 269 225 254 299 310 330 319 310 303 291 261 249 251 238 223 239 238 238 234 256 264 265 269 249 261 237 273 280 270 257 279 234 266 274 264 251 277 268 240 208 222 228 226 168 149 171 177 173 184 181 181 203 162 135 154 165 131 128 134 133 121 120 127 121 111 87
253 253 265 269 278 274 232 237 266 287 289 290 280 276 275 271 266 256 255 257 262 287 309 307 302 308 317 287 277 262 246 247 242 237 230 231 224 236 250 250 253 267 264 253 277 285 290 271 256 263 271 284 267 274 266 278 252 248 244 247 259 269 273 275 64 133 199 197 192 130 134 211 272 151 136 152 143 146 149 140 124 125 123 111 109 101 95
242 262 272 282 263 224 223 263 282 290 305 298 291 288 273 248 242 243 245 252 256 271 285 288 286 272 267 304 337 288 267 244 231 232 236 235 230 228 226 239 251 258 257 268 268 257 262 271 284 272 273 100 263 276 296 274 269 264 291 321 122 12 21 86 94 158 173 198 142 150 185 159 183 131 140 145 149 151 154 136 133 131 132 130 130 129 141
280 288 286 205 182 227 260 278 301 309 308 300 300 284 271 222 191 222 312 245 226 288 285 291 293 291 311 304 294 286 259 224 234 239 238 234 232 224 228 220 223 236 268 272 265 258 244 253 259 261 221 154 247 241 250 275 278 351 38 9 36 51 43 42 155 309 28 129 147 149 158 176 182 156 166 149 153 170 158 147 134 143 146 179 145 121 155
44 53 13 322 267 280 280 285 298 308 300 283 289 259 225 195 96 21 3 346 305 271 271 271 273 300 291 263 254 263 276 259 211 230 235 232 239 237 229 220 227 228 230 227 236 251 276 260 272 279 287 199 177 251 266 261 260 158 70 68 55 67 320 101 355 242 149 171 152 173 207 195 126 155 159 145 157 156 115 118 128 125 115 86 98 145 89
2 339 317 294 286 268 279 280 286 284 274 277 247 256 4 344 338 315 323 319 328 265 255 274 279 255 262 268 241 232 248 246 240 223 234 222 227 215 235 221 237 205 228 252 247 248 232 247 253 272 262 81 146 257 257 253 262 170 108 86 65 62 89 150 282 249 132 134 169 185 195 141 165 193 141 158 155 147 124 120 116 104 112 203 180 153 141
331 323 308 294 286 285 279 285 278 272 280 293 303 294 281 269 261 264 276 284 260 248 270 275 267 297 279 311 304 217 217 232 238 219 240 187 250 185 234 203 226 254 174 218 221 245 241 248 208 238 208 98 244 251 254 252 266 124 180 128 123 111 77 49 221 280 131 237 206 205 164 151 174 134 135 154 137 133 132 154 130 158 209 203 254 151 140
320 317 312 305 292 289 283 280 282 280 271 266 266 243 233 220 233 231 241 271 274 261 259 260 269 258 262 282 267 211 218 238 223 199 244 171 254 210 235 228 185 237 179 223 186 236 238 257 253 250 107 243 251 264 252 245 261 195 155 113 134 141 175 162 153 235 233 221 211 184 135 131 115 105 128 133 133 131 160 158 152 181 202 245 315 152 126
297 293 296 297 290 286 289 281 277 261 268 258 249 248 65 135 192 170 186 220 241 220 209 229 247 278 275 251 261 246 188 239 235 193 243 180 197 249 215 251 159 218 184 217 257 242 242 231 266 253 239 218 222 234 245 261 263 267 138 144 154 163 147 164 171 240 244 45 103 98 118 115 127 146 145 150 156 148 194 170 206 231 181 83 78 76 78
295 292 289 290 295 288 276 250 231 251 241 247 238 88 118 123 141 173 196 222 267 309 291 273 247 246 255 259 243 179 156 249 257 261 238 273 210 230 260 234 228 235 354 226 253 225 249 168 219 242 250 242 229 237 251 231 233 237 164 197 178 208 175 150 142 183 137 216 128 139 140 150 155 138 142 175 152 157 159 240 5 39 350 64 80 80 66
297 297 297 287 281 268 248 247 206 209 229 52 29 107 173 227 185 171 184 221 223 239 272 290 277 261 252 272 326 311 298 247 203 231 196 212 263 211 225 249 248 8 273 267 253 244 323 349 273 267 235 248 261 289 277 186 219 194 160 158 148 217 140 157 185 177 176 189 165 167 173 159 125 138 180 163 131 138 159 174 70 131 35 352 10 257 124
295 298 280 272 249 254 249 204 220 184 215 202 175 200 168 209 190 192 187 226 198 187 223 236 256 265 285 261 249 184 255 291 291 233 230 160 198 241 260 257 66 258 237 236 260 314 175 200 239 262 257 250 309 108 92 51 30 118 141 124 157 172 132 167 175 170 185 177 157 157 144 138 140 170 178 137 171 170 132 87 92 65 25 23 42 7 48
271 265 249 233 248 254 338 41 358 38 196 203 228 243 184 200 214 209 201 198 184 211 214 229 239 239 245 252 260 247 259 293 265 300 274 22 283 114 353 60 274 277 270 261 210 15 262 246 234 226 243 223 187 149 151 250 170 156 217 163 178 134 157 177 179 180 171 142 122 145 154 142 158 154 133 152 164 144 123 162 190 184 184 122 32 8 291
246 234 222 206 224 296 1 66 336 259 208 218 206 244 217 189 214 214 187 201 202 220 194 223 226 231 229 237 247 249 207 239 248 253 246 187 247 295 110 206 101 263 261 249 312 352 271 271 266 260 249 34 15 7 346 323 242 215 177 170 180 145 181 185 166 136 136 132 154 149 138 152 149 153 159 160 190 164 187 188 99 79 112 122 91 271 310
219 239 241 263 1 340 314 314 292 230 218 211 200 214 251 199 205 233 199 214 212 209 202 234 201 216 220 231 231 243 197 277 278 248 231 227 300 316 139 221 77 275 275 256 71 264 281 273 265 261 329 82 304 148 137 322 296 199 141 153 146 167 194 158 147 146 139 142 149 140 137 142 157 157 145 184 171 102 57 70 92 106 88 121 142 204 221
350 325 325 299 276 273 293 258 236 208 222 223 220 207 214 229 193 212 229 216 212 217 197 204 222 216 212 213 215 230 231 224 267 253 245 226 145 232 141 191 208 245 244 61 315 281 259 250 270 280 279 155 143 112 64 311 305 283 173 176 156 192 182 157 155 146 145 139 129 119 120 117 96 82 93 80 81 91 94 97 88 91 214 58 26 267 68
287 264 268 296 268 237 230 266 211 236 199 198 206 224 204 219 207 203 192 232 232 224 204 183 226 222 234 201 213 198 240 158 220 205 259 205 154 241 207 180 153 244 228 15 245 249 243 256 248 234 168 169 155 199 194 191 236 290 257 169 184 206 167 156 145 135 131 127 122 111 106 107 110 104 100 111 117 108 106 137 146 174 134 109 174 280 27
250 243 228 217 241 234 185 223 190 212 228 202 186 206 190 212 194 198 216 203 205 217 206 207 197 206 208 192 233 183 191 150 286 261 244 227 217 201 203 220 210 91 93 228 228 242 247 245 247 192 157 161 162 193 180 208 212 253 259 184 209 174 159 149 139 138 131 125 119 117 117 116 116 122 133 119 109 116 139 130 51 56 128 182 209 209 203
236 193 222 205 237 173 168 207 179 211 214 210 210 215 201 210 199 196 212 184 191 219 178 212 225 203 218 178 218 222 192 215 142 224 222 214 225 204 213 226 150 157 228 229 222 234 239 245 217 172 182 194 185 173 171 177 75 40 319 217 188 167 154 150 145 138 134 136 134 134 126 126 124 120 119 116 123 173 177 137 168 164 185 199 220 224 220
230 195 189 193 250 244 208 225 166 209 223 215 212 220 220 218 222 203 207 188 207 199 200 195 210 230 222 180 212 194 184 201 204 206 224 202 227 223 238 124 130 227 221 237 235 240 236 246 232 210 175 185 173 155 132 119 107 107 40 285 182 164 161 153 143 141 141 141 137 130 133 137 131 127 128 135 153 154 85 110 195 153 159 135 238 248 226
270 243 224 242 225 197 220 226 198 214 211 211 229 231 234 237 234 133 294 252 218 130 231 177 135 258 259 221 219 212 213 185 224 191 209 224 214 138 188 230 217 214 233 233 237 238 243 229 162 136 133 155 146 128 105 71 84 66 41 288 253 171 157 147 145 145 144 141 137 142 145 139 143 166 180 142 92 54 117 131 143 184 196 233 300 350 217
241 256 248 225 222 201 204 218 235 244 247 243 223 231 244 242 241 226 213 227 83 103 351 132 179 179 204 252 273 240 221 204 226 208 210 230 183 221 189 217 235 231 230 245 243 234 244 74 174 135 157 145 144 101 90 95 67 123 156 262 241 171 158 148 149 146 148 143 147 146 147 144 150 160 341 98 150 174 174 163 199 215 198 230 240 271 281
283 285 260 237 231 206 225 231 246 255 254 253 252 237 230 232 235 227 171 87 86 128 130 230 303 196 219 173 217 224 223 190 241 217 199 224 217 210 208 232 224 238 226 234 249 213 199 88 93 128 155 138 108 105 143 167 176 154 158 245 238 175 164 148 150 146 148 144 147 146 145 148 149 133 144 139 165 173 110 71 101 353 294 244 244 245 259
245 245 253 255 277 272 262 242 248 267 260 251 240 237 227 227 220 262 351 165 130 33 7 348 215 233 203 188 220 230 218 181 231 220 229 220 221 227 225 242 231 242 249 232 207 161 153 140 121 95 76 95 106 129 149 162 169 157 166 233 228 168 156 151 149 149 149 146 148 152 157 155 142 169 163 187 163 77 135 197 211 148 245 263 260 246 245
249 251 250 247 265 293 357 298 245 262 259 240 229 234 233 231 219 196 189 229 161 161 180 202 209 218 189 196 207 214 218 174 213 225 229 241 284 254 242 247 257 115 129 267 8 85 130 152 162 169 116 116 120 116 131 145 155 145 160 249 236 189 153 147 149 151 145 155 153 156 152 155 157 150 175 198 114 198 223 217 173 188 213 217 206 241 252
247 234 247 258 255 266 264 270 273 265 277 273 252 243 250 265 239 198 152 225 234 221 216 193 192 210 198 215 210 234 159 193 219 230 241 215 206 230 251 282 11 104 148 145 143 172 144 113 91 59 103 118 111 119 125 118 130 123 178 220 231 159 147 152 148 147 145 138 151 154 148 167 154 174 122 181 242 247 240 236 155 216 203 217 295 240 197